Tracking 33094 objects as of 25-Jan-2026
HD Live streaming from Space Station
objects crossing your sky now

STARLINK-31164

Track STARLINK-31164 now!
10-day predictions
STARLINK-31164 is classified as:


NORAD ID: 58733
Int'l Code: 2024-005F
Perigee: 565.5 km
Apogee: 566.8 km
Inclination: 43.0 °
Period: 95.8 minutes
Semi major axis: 6937 km
RCS: Unknown
Launch date: January 7, 2024
Source: United States (US)
Launch site: AIR FORCE EASTERN TEST RANGE (AFETR)
Your satellite tracking list
Your tracking list is empty




NASA's NSSDC Master Catalog

Two Line Element Set (TLE):
1 58733U 24005F   26024.59481870  .00001212  00000-0  10475-3 0  9999
2 58733  43.0069 101.6473 0000967 280.6209  79.4525 15.02558195113773
Source of the keplerian elements: AFSPC